[[{"header":{"parameterUnit":"m.s-1","parameterCategory":1,"la1":30.2991,"la2":30.254,"lo1":-89.0895,"lo2":-89.0444,"dy":0.0017,"dx":0.0017,"nx":28,"ny":28,"refTime":"2024-05-19T03:00:00:Z","depth":0,"parameterNumber":2,"parameterNumberName":"U-component_of_WINDS"},"data":[0,0,0,0,0,0,0,0,0,0,0,0,0,0,0,0,0,0,0,0,0,0,0,0,0,0,0,0,0,0,0,0,0,0,0,0,0,0,0,0,0,0,0,0,0,0,0,0,0,0,0,0,0,0,0,0,0,0,2.3878,2.3879,0,2.3979,2.398,2.3981,2.3953,2.3951,2.3949,2.3947,2.4053,2.4057,2.4062,0,0,0,0,0,0,0,0,0,0,0,0,0,2.366,2.3664,2.3878,2.3879,2.388,2.3979,2.398,2.3981,2.3953,2.3951,2.3948,2.3946,2.4051,2.4057,2.4063,0,0,0,0,0,0,0,0,0,0,0,0,0,2.3757,2.3666,2.3877,2.3878,2.3879,2.3978,2.398,2.3982,2.3954,2.3951,2.3947,2.3945,2.4049,2.4056,2.4063,2.4169,0,0,2.4085,2.4088,0,0,0,0,0,0,0,0,2.3752,2.3765,2.3877,2.3878,2.3879,2.395,2.3942,2.4045,2.3954,2.3925,2.3947,2.3943,2.4021,2.4031,2.4056,2.4174,2.4179,2.4086,2.409,2.4093,2.4095,0,0,0,0,0,0,0,2.3745,2.3761,2.3918,2.3878,2.388,2.3873,2.3883,2.3961,2.399,2.3928,2.3926,2.3938,2.4021,2.405,2.4059,2.418,2.4086,2.4092,2.4096,2.4099,2.4386,2.4389,0,0,0,0,0,0,2.3737,2.3755,2.3914,2.3921,2.3807,2.3879,2.3891,2.393,2.3989,2.3994,2.3941,2.3936,2.4039,2.405,2.4062,2.4187,2.4093,2.41,2.4104,2.4383,2.4387,2.439,0,0,0,0,0,0,2.3733,2.3752,2.391,2.3838,2.3857,2.3886,2.3931,2.3934,2.3962,2.3998,2.4003,2.3964,2.4037,2.4052,2.4142,2.419,2.4103,2.4109,2.4379,2.4384,2.4388,2.4439,0,0,0,0,0,0,2.3727,2.375,2.3791,2.3839,2.3861,2.3988,2.3934,2.3938,2.3974,2.397,2.4022,2.4027,2.4036,2.4131,2.4149,2.4199,2.4115,2.4374,2.4381,2.4387,2.4434,2.4446,2.4456,0,0,0,0,0,2.3719,2.3803,2.3793,2.3813,2.3913,2.3991,2.4004,2.4011,2.3978,2.4019,2.4042,2.4026,2.4182,2.4141,2.416,2.4213,2.4371,2.4379,2.4386,2.4429,2.4443,2.4456,0,0,0,0,0,0,2.3762,2.3809,2.3799,2.3901,2.3942,2.3986,2.4038,2.4027,2.4079,2.4073,2.408,2.4092,2.4183,2.4207,2.416,2.4316,2.4272,2.4284,2.4297,2.4312,2.4323,2.4314,2.4121,0,0,0,0,0,2.3783,2.3843,2.3881,2.3967,2.3988,2.4009,2.4044,2.4045,2.4089,2.4106,2.4136,2.4179,2.4237,2.4276,2.4332,2.4437,2.4447,2.4483,2.4494,2.4503,2.4513,2.4566,2.4582,2.4415,2.4415,2.4415,0,0,2.3828,2.3861,2.3898,2.3976,2.4008,2.4069,2.4025,2.4092,2.4137,2.4117,2.4202,2.4225,2.4274,2.437,2.4414,2.4393,2.4561,2.4512,2.4519,2.4524,2.4576,2.4592,2.4606,2.442,2.4419,2.4418,0,0,2.394,2.3972,2.4045,2.4077,2.4125,2.4139,2.4156,2.4202,2.4215,2.4301,2.4286,2.434,2.4442,2.4476,2.4506,2.4627,2.4613,2.4645,2.4704,2.4756,2.4769,2.4781,2.4822,2.4836,2.4655,2.4655,2.4656,0,2.3989,2.408,2.4085,2.4152,2.4185,2.4169,2.4242,2.4274,2.4338,2.4362,2.4337,2.4461,2.4493,2.4595,2.4624,2.4651,2.467,2.4639,2.4767,2.4779,2.479,2.4828,2.4844,2.4659,2.4658,2.4658,2.4658,0,2.4137,2.42,2.4254,2.4314,2.4354,2.4424,2.4439,2.4479,2.4476,2.4491,2.4577,2.4614,2.4676,2.47,2.47,2.4802,2.4787,2.4765,2.472,2.4809,2.4845,2.486,2.4664,2.4662,2.4661,2.4661,0,0,2.4281,2.434,2.4359,2.4385,2.4435,2.4484,2.4553,2.4611,2.4644,2.4689,2.4745,2.483,2.4808,2.4843,2.4846,2.4892,2.4982,2.4863,2.4865,2.4882,2.5094,2.5109,2.5126,2.4973,2.4976,2.4978,2.5089,0,2.4395,2.4514,2.4519,2.4628,2.4684,2.4668,2.4727,2.4764,2.478,2.483,2.4848,2.4907,2.4875,2.4895,2.494,2.4961,2.5024,2.4954,2.5025,2.5027,2.5011,2.5146,2.5163,2.5265,2.5103,2.5106,2.5108,0,2.4545,2.4591,2.4705,2.4744,2.4768,2.4821,2.4873,2.4922,2.4963,2.4971,2.5008,2.5003,2.5072,2.5025,2.5119,2.5071,2.51,2.5115,2.5119,2.5125,2.5072,2.5153,2.5299,2.5313,2.5131,2.5129,2.5127,0,2.4634,2.4726,2.4805,2.4828,2.4876,2.4913,2.4935,2.4973,2.5006,2.5053,2.5074,2.5128,2.5158,2.5199,2.5209,2.5174,2.5302,2.5257,2.5309,2.5309,2.5337,2.5334,2.5487,2.5359,2.5358,2.5358,2.5358,0,2.4761,2.483,2.4845,2.4894,2.497,2.4974,2.5051,2.507,2.5103,2.5154,2.5144,2.5192,2.5202,2.5253,2.5261,2.5336,2.535,2.5358,2.5358,2.5358,2.5356,2.5376,2.5368,2.5362,2.5361,2.536,2.536,0,2.4874,2.4887,2.4971,2.5009,2.5019,2.5074,2.5106,2.5152,2.5166,2.5231,2.5246,2.5268,2.5326,2.5339,2.541,2.5415,2.5503,2.5498,2.5488,2.5488,2.5539,2.5533,2.5707,2.5729,2.5589,2.559,2.5591,0,2.4953,2.5005,2.5047,2.508,2.5103,2.5157,2.519,2.5196,2.5231,2.528,2.5319,2.5376,2.5422,2.5515,2.5537,2.559,2.5585,2.5643,2.5593,2.5589,2.5583,2.5579,2.5583,2.5652,2.5653,2.5655,2.5656,0,2.509,2.5093,2.5141,2.5191,2.5231,2.5271,2.5309,2.5337,2.5347,2.5387,2.5446,2.5481,2.555,2.5606,2.5658,2.5681,2.567,2.5671,2.5685,2.5684,2.5675,2.5678,2.5512,2.5667,2.5666,2.5665,2.5664,2.5664,2.5187,2.5232,2.5267,2.5321,2.5349,2.5384,2.5428,2.5446,2.5494,2.555,2.5551,2.5614,2.5651,2.5719,2.5745,2.5794,2.5776,2.5798,2.5803,2.5808,2.5811,2.5669,2.5804,2.5803,2.5803,2.5803,2.5803,0,2.5322,2.5343,2.5392,2.5444,2.5486,2.547,2.5511,2.5546,2.5601,2.5636,2.568,2.5746,2.5799,2.5824,2.5876,2.5911,2.5907,2.5924,2.5921,2.5925,2.5825,2.5806,2.5926,2.5926,2.5926,2.5926,2.5926,2.5926,2.5397,2.5471,2.5477,2.5564,2.5585,2.5646,2.567,2.5701,2.5728,2.5802,2.5845,2.586,2.5891,2.5945,2.5992,2.5998,2.6017,2.6037,2.604,2.5946,2.5933,2.5921,2.5903,2.6041,2.6041,2.6136,2.6137,2.6137]},{"header":{"parameterUnit":"m.s-1","parameterCategory":1,"la1":30.2991,"la2":30.254,"lo1":-89.0895,"lo2":-89.0444,"dy":0.0017,"dx":0.0017,"nx":28,"ny":28,"refTime":"2024-05-19T03:00:00:Z","depth":0,"parameterNumber":3,"parameterNumberName":"V-component_of_WINDS"},"data":[0,0,0,0,0,0,0,0,0,0,0,0,0,0,0,0,0,0,0,0,0,0,0,0,0,0,0,0,0,0,0,0,0,0,0,0,0,0,0,0,0,0,0,0,0,0,0,0,0,0,0,0,0,0,0,0,0,0,2.003,2.0031,0,2.0092,2.0093,2.0094,2.0085,2.0084,2.0083,2.0082,2.0144,2.0147,2.0149,0,0,0,0,0,0,0,0,0,0,0,0,0,1.9903,1.9905,2.003,2.0031,2.0032,2.0092,2.0093,2.0094,2.0085,2.0084,2.0083,2.0082,2.0143,2.0147,2.015,0,0,0,0,0,0,0,0,0,0,0,0,0,1.9961,1.9906,2.003,2.0035,2.0036,2.0092,2.0093,2.0094,2.0086,2.0084,2.0083,2.0081,2.0142,2.0146,2.015,2.0205,0,0,2.0162,2.0164,0,0,0,0,0,0,0,0,1.9958,1.9966,2.0033,2.0035,2.0036,2.0079,2.0071,2.0131,2.0086,2.0067,2.0082,2.008,2.0124,2.0129,2.0144,2.0208,2.0211,2.0162,2.0165,2.0166,2.0168,0,0,0,0,0,0,0,1.9954,1.9963,2.0055,2.0034,2.0036,2.0033,2.004,2.0082,2.0103,2.0068,2.0068,2.0075,2.0124,2.014,2.0146,2.0211,2.0162,2.0166,2.0168,2.017,2.0322,2.0323,0,0,0,0,0,0,1.9948,1.996,2.0053,2.0057,1.9992,2.0037,2.0044,2.0067,2.0103,2.0107,2.0077,2.0075,2.0135,2.0141,2.0148,2.0213,2.0166,2.017,2.0172,2.032,2.0322,2.0324,0,0,0,0,0,0,1.9946,1.9957,2.005,2.0008,2.002,2.0041,2.0066,2.0069,2.0085,2.0109,2.0112,2.0089,2.0134,2.0142,2.0191,2.0215,2.0172,2.0175,2.0318,2.0321,2.0323,2.0346,0,0,0,0,0,0,1.9942,1.9956,1.9978,2.0009,2.0022,2.0093,2.0068,2.0071,2.0092,2.009,2.0122,2.0126,2.0133,2.0185,2.0194,2.022,2.0179,2.0316,2.0319,2.0322,2.0343,2.0349,2.0354,0,0,0,0,0,1.9938,1.9982,1.9979,1.999,2.005,2.0094,2.0102,2.011,2.0094,2.0116,2.0131,2.0125,2.0211,2.019,2.0201,2.0228,2.0314,2.0318,2.0322,2.034,2.0348,2.0354,0,0,0,0,0,0,1.9953,1.9986,1.9983,2.0038,2.0064,2.0093,2.012,2.0117,2.0147,2.0144,2.0153,2.016,2.0208,2.0223,2.0199,2.0282,2.026,2.0267,2.0271,2.0278,2.0283,2.0279,2.0182,0,0,0,0,0,1.9963,1.9997,2.0024,2.007,2.0083,2.0099,2.0119,2.0123,2.0149,2.016,2.0178,2.0204,2.0236,2.0258,2.029,2.0345,2.0351,2.0369,2.0374,2.0378,2.0384,2.0413,2.0421,2.0336,2.0336,2.0336,0,0,1.9984,2.0006,2.0027,2.0073,2.0094,2.0128,2.0108,2.0146,2.0171,2.0165,2.0212,2.0226,2.0255,2.0307,2.0331,2.032,2.0408,2.0383,2.0387,2.0389,2.0417,2.0425,2.0432,2.0339,2.0338,2.0338,0,0,2.0039,2.0059,2.01,2.012,2.015,2.0161,2.0171,2.02,2.0209,2.0256,2.0252,2.0282,2.0339,2.0359,2.0377,2.0438,2.0433,2.0448,2.0477,2.0505,2.0512,2.0518,2.0539,2.0546,2.0453,2.0453,2.0453,0,2.0061,2.0113,2.0121,2.0158,2.0179,2.0175,2.0215,2.0234,2.0273,2.0287,2.0275,2.0345,2.0364,2.042,2.0435,2.045,2.046,2.0445,2.051,2.0516,2.0522,2.0542,2.055,2.0455,2.0455,2.0455,2.0454,0,2.0138,2.0174,2.0203,2.024,2.0264,2.0303,2.0315,2.0338,2.034,2.0351,2.0398,2.0421,2.0456,2.047,2.0472,2.0526,2.0518,2.0508,2.0487,2.0531,2.055,2.0558,2.0457,2.0457,2.0456,2.0456,0,0,2.0205,2.0246,2.0256,2.0273,2.0306,2.0333,2.0371,2.0406,2.0425,2.0452,2.0483,2.0531,2.0521,2.0541,2.0545,2.057,2.0616,2.0557,2.0558,2.0567,2.0676,2.0683,2.0692,2.0613,2.0615,2.0616,2.0673,0,2.0263,2.0331,2.0338,2.0399,2.0431,2.0428,2.0461,2.0484,2.0495,2.0524,2.0537,2.057,2.0555,2.0567,2.0592,2.0606,2.0638,2.0602,2.0642,2.0643,2.0635,2.0702,2.071,2.0763,2.0681,2.0682,2.0683,0,2.034,2.0369,2.0432,2.0459,2.0473,2.0503,2.0535,2.0563,2.0589,2.0595,2.0617,2.0617,2.0656,2.0633,2.0685,2.066,2.0676,2.0686,2.0688,2.0692,2.0666,2.0707,2.078,2.0788,2.0695,2.0694,2.0693,0,2.0382,2.0436,2.0481,2.0495,2.0528,2.0549,2.0564,2.0588,2.0608,2.0636,2.0649,2.068,2.0698,2.0722,2.073,2.0713,2.0782,2.076,2.0787,2.0787,2.0802,2.0801,2.0878,2.0814,2.0813,2.0813,2.0813,0,2.0445,2.0484,2.05,2.0528,2.0571,2.0578,2.062,2.0634,2.0655,2.0685,2.0683,2.0711,2.0721,2.0749,2.0756,2.0798,2.0806,2.0811,2.0813,2.0811,2.0811,2.0822,2.0819,2.0815,2.0815,2.0815,2.0814,0,2.0499,2.0512,2.056,2.0587,2.0595,2.0625,2.0648,2.0674,2.0685,2.0722,2.0731,2.0748,2.0781,2.0792,2.0833,2.0837,2.0886,2.0884,2.0877,2.0877,2.0904,2.0901,2.0992,2.1004,2.0931,2.0932,2.0933,0,2.0539,2.0569,2.0599,2.0618,2.0634,2.0666,2.0686,2.0694,2.0715,2.0746,2.0768,2.0802,2.0829,2.0883,2.0898,2.0929,2.0928,2.0957,2.0932,2.093,2.0927,2.0925,2.0928,2.0962,2.0963,2.0963,2.0964,0,2.0608,2.0612,2.0642,2.0674,2.0698,2.0723,2.0747,2.0763,2.0775,2.0799,2.0833,2.0854,2.0896,2.0929,2.096,2.0974,2.0971,2.0971,2.0979,2.0978,2.0973,2.0975,2.089,2.0969,2.0969,2.0968,2.0968,2.0968,2.0656,2.0681,2.0706,2.0739,2.0758,2.0781,2.0806,2.082,2.0849,2.0883,2.0886,2.0923,2.0947,2.0989,2.1004,2.1033,2.1024,2.1036,2.1039,2.1042,2.1043,2.0968,2.1038,2.1038,2.1038,2.1038,2.1038,0,2.0724,2.0739,2.0769,2.0803,2.0829,2.0824,2.085,2.0871,2.0904,2.0927,2.0953,2.0992,2.1024,2.1041,2.1073,2.1092,2.1091,2.11,2.1098,2.1102,2.1049,2.1039,2.11,2.11,2.11,2.11,2.11,2.11,2.0762,2.0805,2.0813,2.0865,2.088,2.0916,2.0932,2.0952,2.097,2.1014,2.104,2.1051,2.1071,2.1104,2.1132,2.1137,2.1148,2.1157,2.1161,2.1112,2.1105,2.1099,2.109,2.116,2.116,2.121,2.1211,2.1211]}]]